This is the latest recevied weather packets stored in our database for station/object DL4MGC-10. If no packets are shown the sender has not sent any weather packets the latest 10 day(s).
| Time | Temp. | Humidity | Pressure | Rain* | Wind** | Luminosity | Snow |
|---|---|---|---|---|---|---|---|
| 1788035190 | 18.33° C | 83% | 1016.4 hPa | - | - | - | - |
| 1788034290 | 18.33° C | 85% | 1016.4 hPa | - | - | - | - |
| 1788033390 | 18.89° C | 85% | 1016.4 hPa | - | - | - | - |
| 1788032497 | 18.89° C | 84% | 1016.3 hPa | - | - | - | - |
| 1788031590 | 19.44° C | 81% | 1016.3 hPa | - | - | - | - |
| 1788030689 | 20° C | 80% | 1016.1 hPa | - | - | - | - |
| 1788029789 | 20° C | 81% | 1015.9 hPa | - | - | - | - |
| 1788028889 | 20.56° C | 77% | 1015.8 hPa | - | - | - | - |
| 1788027989 | 21.11° C | 77% | 1015.7 hPa | - | - | - | - |
| 1788027089 | 22.22° C | 72% | 1015.6 hPa | - | - | - | - |
| 1788026189 | 22.78° C | 64% | 1015.5 hPa | - | - | - | - |
| 1788025289 | 22.78° C | 61% | 1015.5 hPa | - | - | - | - |
| 1788024389 | 23.89° C | 59% | 1015.5 hPa | - | - | - | - |
| 1788023489 | 23.33° C | 58% | 1015.4 hPa | - | - | - | - |
| 1788022588 | 24.44° C | 58% | 1015.5 hPa | - | - | - | - |
| 1788021688 | 23.89° C | 57% | 1015.4 hPa | - | - | - | - |
| 1788020788 | 24.44° C | 58% | 1015.6 hPa | - | - | - | - |
| 1788019888 | 24.44° C | 57% | 1015.6 hPa | - | - | - | - |
| 1788018988 | 24.44° C | 57% | 1015.8 hPa | - | - | - | - |
| 1788018088 | 25° C | 56% | 1015.7 hPa | - | - | - | - |
| 1788017188 | 25° C | 57% | 1015.7 hPa | - | - | - | - |
| 1788016288 | 25.56° C | 56% | 1015.7 hPa | - | - | - | - |
| 1788015388 | 24.44° C | 55% | 1015.8 hPa | - | - | - | - |
| 1788014487 | 25° C | 55% | 1015.9 hPa | - | - | - | - |
| 1788013595 | 25.56° C | 54% | 1015.9 hPa | - | - | - | - |
* Rain since midnight (hover to see other rain measurements)
** Current wind speed in m/s (hover to see current wind gust speed)